| time (UTC) | temp F | wind direction | speed MPH | gust MPH | rain 1hr in | rain 24hr in | rain mn in | humidity % | barometer mb |
| 20260502214543 | 59 | 37 | 9.0 | 17.0 | 0.00 | 0.00 | 0.00 | 42 | 1012.6 |
| 20260502214038 | 60 | 19 | 7.0 | 17.0 | 0.00 | 0.00 | 0.00 | 45 | 1012.7 |
| 20260502213538 | 59 | 336 | 5.0 | 20.0 | 0.00 | 0.00 | 0.00 | 45 | 1012.5 |
| 20260502213100 | 59 | 24 | 9.0 | 20.0 | 0.00 | 0.00 | 0.00 | 45 | 1012.5 |
| 20260502212538 | 60 | 44 | 7.0 | 24.0 | 0.00 | 0.00 | 0.00 | 44 | 1012.4 |
| 20260502212038 | 60 | 15 | 11.0 | 24.0 | 0.00 | 0.00 | 0.00 | 42 | 1012.4 |
| 20260502211549 | 60 | 26 | 13.0 | 22.0 | 0.00 | 0.00 | 0.00 | 42 | 1012.4 |
| 20260502211038 | 60 | 48 | 11.0 | 22.0 | 0.00 | 0.00 | 0.00 | 44 | 1012.3 |
| 20260502210540 | 60 | 355 | 9.0 | 19.0 | 0.00 | 0.00 | 0.00 | 44 | 1012.4 |
| 20260502210051 | 60 | 360 | 10.0 | 19.0 | 0.00 | 0.00 | 0.00 | 42 | 1012.4 |
| 20260502205538 | 60 | 360 | 10.0 | 18.0 | 0.00 | 0.00 | 0.00 | 41 | 1012.3 |
| 20260502205043 | 61 | 313 | 9.0 | 18.0 | 0.00 | 0.00 | 0.00 | 40 | 1012.3 |
| 20260502204546 | 61 | 352 | 8.0 | 17.0 | 0.00 | 0.00 | 0.00 | 42 | 1012.2 |
| 20260502204042 | 61 | 360 | 8.0 | 17.0 | 0.00 | 0.00 | 0.00 | 41 | 1012.4 |
| 20260502203539 | 60 | 360 | 9.0 | 17.0 | 0.00 | 0.00 | 0.00 | 41 | 1012.4 |
| 20260502203050 | 60 | 41 | 11.0 | 22.0 | 0.00 | 0.00 | 0.00 | 37 | 1012.4 |
| 20260502202538 | 60 | 290 | 10.0 | 28.0 | 0.00 | 0.00 | 0.00 | 39 | 1012.2 |
| 20260502202038 | 60 | 13 | 14.0 | 28.0 | 0.00 | 0.00 | 0.00 | 37 | 1012.3 |
| 20260502201548 | 60 | 28 | 7.0 | 20.0 | 0.00 | 0.00 | 0.00 | 42 | 1012.2 |
| 20260502201038 | 60 | 9 | 11.0 | 21.0 | 0.00 | 0.00 | 0.00 | 38 | 1012.2 |
| 20260502200538 | 60 | 348 | 11.0 | 21.0 | 0.00 | 0.00 | 0.00 | 39 | 1012.3 |
| 20260502200107 | 61 | 10 | 12.0 | 21.0 | 0.00 | 0.00 | 0.00 | 37 | 1012.3 |
| 20260502195537 | 61 | 360 | 11.0 | 22.0 | 0.00 | 0.00 | 0.00 | 38 | 1012.2 |
| 20260502195038 | 61 | 304 | 9.0 | 25.0 | 0.00 | 0.00 | 0.00 | 41 | 1012.2 |
| 20260502194605 | 61 | 348 | 10.0 | 25.0 | 0.00 | 0.00 | 0.00 | 40 | 1012.3 |
| 20260502194039 | 61 | 63 | 11.0 | 25.0 | 0.00 | 0.00 | 0.00 | 40 | 1012.2 |
| 20260502193540 | 60 | 352 | 10.0 | 20.0 | 0.00 | 0.00 | 0.00 | 40 | 1012.2 |
| 20260502193047 | 60 | 37 | 12.0 | 22.0 | 0.00 | 0.00 | 0.00 | 38 | 1012.3 |
| 20260502192538 | 60 | 35 | 11.0 | 24.0 | 0.00 | 0.00 | 0.00 | 37 | 1012.3 |
| 20260502192038 | 61 | 5 | 12.0 | 24.0 | 0.00 | 0.00 | 0.00 | 40 | 1012.3 |
| 20260502191551 | 61 | 355 | 8.0 | 19.0 | 0.00 | 0.00 | 0.00 | 38 | 1012.1 |
| 20260502191039 | 60 | 360 | 11.0 | 26.0 | 0.00 | 0.00 | 0.00 | 35 | 1012.2 |
| 20260502190539 | 60 | 343 | 12.0 | 26.0 | 0.00 | 0.00 | 0.00 | 36 | 1012.3 |
| 20260502190048 | 61 | 282 | 9.0 | 26.0 | 0.00 | 0.00 | 0.00 | 39 | 1012.1 |
| 20260502185537 | 60 | 304 | 9.0 | 20.0 | 0.00 | 0.00 | 0.00 | 38 | 1012.0 |
| 20260502185037 | 60 | 5 | 9.0 | 20.0 | 0.00 | 0.00 | 0.00 | 37 | 1012.2 |
| 20260502184546 | 60 | 40 | 10.0 | 20.0 | 0.00 | 0.00 | 0.00 | 41 | 1012.2 |
| 20260502184044 | 60 | 5 | 6.0 | 17.0 | 0.00 | 0.00 | 0.00 | 40 | 1012.1 |
| 20260502183539 | 60 | 25 | 6.0 | 17.0 | 0.00 | 0.00 | 0.00 | 41 | 1012.3 |
| 20260502183050 | 60 | 280 | 9.0 | 17.0 | 0.00 | 0.00 | 0.00 | 37 | 1012.2 |
| 20260502182539 | 60 | 308 | 10.0 | 19.0 | 0.00 | 0.00 | 0.00 | 38 | 1012.3 |
| 20260502182038 | 60 | 11 | 4.0 | 19.0 | 0.00 | 0.00 | 0.00 | 44 | 1012.2 |
| 20260502181552 | 60 | 329 | 9.0 | 19.0 | 0.00 | 0.00 | 0.00 | 41 | 1012.3 |
| 20260502181038 | 60 | 302 | 6.0 | 21.0 | 0.00 | 0.00 | 0.00 | 43 | 1012.3 |
| 20260502180538 | 60 | 271 | 7.0 | 21.0 | 0.00 | 0.00 | 0.00 | 48 | 1012.2 |
| 20260502164038 | 58 | 311 | 6.0 | 18.0 | 0.00 | 0.00 | 0.00 | 58 | 1012.8 |
| 20260502163541 | 58 | 20 | 12.0 | 18.0 | 0.00 | 0.00 | 0.00 | 56 | 1012.9 |
| 20260502163051 | 58 | 10 | 7.0 | 17.0 | 0.00 | 0.00 | 0.00 | 58 | 1012.9 |
| 20260502162538 | 58 | 344 | 8.0 | 21.0 | 0.00 | 0.00 | 0.00 | 58 | 1012.8 |
| 20260502162037 | 58 | 32 | 11.0 | 21.0 | 0.00 | 0.00 | 0.00 | 58 | 1012.9 |
| 20260502161549 | 58 | 342 | 10.0 | 21.0 | 0.00 | 0.00 | 0.00 | 60 | 1013.0 |
| 20260502161038 | 58 | 16 | 6.0 | 16.0 | 0.00 | 0.00 | 0.00 | 63 | 1013.0 |
| 20260502160538 | 57 | 236 | 9.0 | 16.0 | 0.00 | 0.00 | 0.00 | 61 | 1013.0 |
| 20260502152038 | 57 | 9 | 1.0 | 10.0 | 0.00 | 0.00 | 0.00 | 67 | 1012.6 |
| 20260502151559 | 56 | 106 | 2.0 | 10.0 | 0.00 | 0.00 | 0.00 | 66 | 1012.8 |
| 20260502151038 | 56 | 334 | 4.0 | 10.0 | 0.00 | 0.00 | 0.00 | 69 | 1012.8 |
| 20260502150537 | 56 | 99 | 3.0 | 10.0 | 0.00 | 0.00 | 0.00 | 67 | 1012.6 |
| 20260502150118 | 56 | 45 | 4.0 | 9.0 | 0.00 | 0.00 | 0.00 | 68 | 1012.7 |
| 20260502130540 | 51 | 355 | 4.0 | 9.0 | 0.00 | 0.00 | 0.00 | 74 | 1012.3 |
| 20260502123539 | 51 | 351 | 4.0 | 9.0 | 0.00 | 0.00 | 0.00 | 75 | 1012.5 |
| 20260502123049 | 50 | 13 | 3.0 | 9.0 | 0.00 | 0.00 | 0.00 | 75 | 1012.5 |
| 20260502122540 | 50 | 5 | 4.0 | 9.0 | 0.00 | 0.00 | 0.00 | 75 | 1012.3 |
| 20260502122041 | 50 | 311 | 3.0 | 9.0 | 0.00 | 0.00 | 0.00 | 75 | 1012.3 |
| 20260502121557 | 50 | 10 | 3.0 | 5.0 | 0.00 | 0.00 | 0.00 | 74 | 1011.9 |
| 20260502121044 | 51 | 30 | 2.0 | 6.0 | 0.00 | 0.00 | 0.00 | 75 | 1012.1 |
| 20260502120541 | 50 | 48 | 3.0 | 7.0 | 0.00 | 0.00 | 0.00 | 75 | 1012.2 |
| 20260502120110 | 50 | 309 | 2.0 | 7.0 | 0.00 | 0.00 | 0.00 | 74 | 1012.4 |
| 20260502115541 | 51 | 296 | 3.0 | 7.0 | 0.00 | 0.00 | 0.00 | 74 | 1012.5 |
| 20260502115039 | 50 | 304 | 2.0 | 5.0 | 0.00 | 0.00 | 0.00 | 73 | 1012.5 |
| 20260502114548 | 51 | 285 | 2.0 | 8.0 | 0.00 | 0.00 | 0.00 | 73 | 1012.4 |
| 20260502114039 | 51 | 15 | 2.0 | 8.0 | 0.00 | 0.00 | 0.00 | 73 | 1012.4 |
| 20260502113540 | 51 | 340 | 2.0 | 5.0 | 0.00 | 0.00 | 0.00 | 73 | 1012.3 |
| 20260502113109 | 51 | 292 | 2.0 | 4.0 | 0.00 | 0.00 | 0.00 | 74 | 1012.4 |
| 20260502112538 | 51 | 296 | 2.0 | 5.0 | 0.00 | 0.00 | 0.00 | 73 | 1012.2 |
| 20260502112041 | 51 | 261 | 1.0 | 7.0 | 0.00 | 0.00 | 0.00 | 72 | 1012.3 |
| 20260502111548 | 51 | 239 | 4.0 | 7.0 | 0.00 | 0.00 | 0.00 | 74 | 1012.1 |
| 20260502111038 | 51 | 5 | 3.0 | 11.0 | 0.00 | 0.00 | 0.00 | 73 | 1011.8 |
| 20260502110544 | 51 | 330 | 3.0 | 11.0 | 0.00 | 0.00 | 0.00 | 72 | 1011.7 |
| 20260502110057 | 51 | 323 | 3.0 | 11.0 | 0.00 | 0.00 | 0.00 | 73 | 1011.7 |
| 20260502105538 | 51 | 346 | 3.0 | 9.0 | 0.00 | 0.00 | 0.00 | 73 | 1011.8 |
| 20260502105039 | 51 | 349 | 4.0 | 9.0 | 0.00 | 0.00 | 0.00 | 72 | 1011.8 |
| 20260502104549 | 51 | 350 | 3.0 | 6.0 | 0.00 | 0.00 | 0.00 | 72 | 1011.9 |
| 20260502104039 | 51 | 337 | 4.0 | 9.0 | 0.00 | 0.00 | 0.00 | 71 | 1011.8 |
| 20260502103539 | 51 | 16 | 3.0 | 9.0 | 0.00 | 0.00 | 0.00 | 71 | 1011.9 |
| 20260502103108 | 51 | 360 | 4.0 | 9.0 | 0.00 | 0.00 | 0.00 | 71 | 1011.6 |
| 20260502102539 | 51 | 327 | 5.0 | 9.0 | 0.00 | 0.00 | 0.00 | 72 | 1011.5 |
| 20260502102041 | 51 | 31 | 3.0 | 5.0 | 0.00 | 0.00 | 0.00 | 71 | 1011.5 |
| 20260502101549 | 51 | 17 | 2.0 | 5.0 | 0.00 | 0.00 | 0.00 | 73 | 1011.6 |
| 20260502101038 | 51 | 340 | 3.0 | 7.0 | 0.00 | 0.00 | 0.00 | 71 | 1011.5 |
| 20260502100543 | 52 | 355 | 3.0 | 9.0 | 0.00 | 0.00 | 0.00 | 71 | 1011.5 |
| 20260502091040 | 52 | 15 | 3.0 | 8.0 | 0.00 | 0.00 | 0.00 | 69 | 1011.8 |
| 20260502090539 | 52 | 9 | 3.0 | 8.0 | 0.00 | 0.00 | 0.00 | 68 | 1011.6 |
| 20260502071038 | 54 | 300 | 4.0 | 10.0 | 0.00 | 0.00 | 0.00 | 67 | 1012.3 |
| 20260502070539 | 54 | 254 | 2.0 | 7.0 | 0.00 | 0.00 | 0.00 | 68 | 1012.4 |
| 20260502070050 | 54 | 310 | 3.0 | 7.0 | 0.00 | 0.00 | 0.00 | 68 | 1012.3 |
| 20260502065540 | 54 | 275 | 2.0 | 7.0 | 0.00 | 0.00 | 0.00 | 68 | 1012.2 |
| 20260502065038 | 54 | 337 | 2.0 | 8.0 | 0.00 | 0.00 | 0.00 | 70 | 1012.2 |
| 20260502064548 | 54 | 5 | 3.0 | 8.0 | 0.00 | 0.00 | 0.00 | 70 | 1012.2 |
| 20260502064040 | 54 | 327 | 3.0 | 6.0 | 0.00 | 0.00 | 0.00 | 70 | 1012.4 |
| 20260502063539 | 54 | 360 | 2.0 | 8.0 | 0.00 | 0.00 | 0.00 | 70 | 1012.5 |
| 20260502063054 | 54 | 360 | 2.0 | 8.0 | 0.00 | 0.00 | 0.00 | 71 | 1012.6 |
| 20260502062539 | 55 | 288 | 1.0 | 7.0 | 0.00 | 0.00 | 0.00 | 72 | 1012.6 |
| 20260502062041 | 55 | 300 | 2.0 | 7.0 | 0.00 | 0.00 | 0.00 | 72 | 1012.6 |
| 20260502061542 | 55 | 297 | 3.0 | 6.0 | 0.00 | 0.00 | 0.00 | 73 | 1012.6 |
| 20260502061040 | 55 | 292 | 2.0 | 6.0 | 0.00 | 0.00 | 0.00 | 73 | 1012.6 |
| 20260502060539 | 55 | 289 | 2.0 | 7.0 | 0.00 | 0.00 | 0.00 | 73 | 1012.7 |
| 20260502060042 | 55 | 5 | 3.0 | 7.0 | 0.00 | 0.00 | 0.00 | 73 | 1012.6 |
| 20260502055539 | 55 | 355 | 2.0 | 6.0 | 0.00 | 0.00 | 0.00 | 73 | 1012.5 |
| 20260502055039 | 55 | 293 | 2.0 | 6.0 | 0.00 | 0.00 | 0.00 | 75 | 1012.4 |
| 20260502054554 | 55 | 355 | 3.0 | 6.0 | 0.00 | 0.00 | 0.00 | 75 | 1012.4 |
| 20260502054040 | 55 | 297 | 1.0 | 4.0 | 0.00 | 0.00 | 0.00 | 76 | 1012.6 |
| 20260502053541 | 55 | 347 | 2.0 | 6.0 | 0.00 | 0.00 | 0.00 | 76 | 1012.8 |
| 20260502053101 | 55 | 254 | 2.0 | 6.0 | 0.00 | 0.00 | 0.00 | 76 | 1012.7 |
| 20260502052540 | 55 | 292 | 1.0 | 5.0 | 0.00 | 0.00 | 0.00 | 76 | 1012.7 |
| 20260502052042 | 55 | 0 | 1.0 | 5.0 | 0.00 | 0.00 | 0.00 | 76 | 1012.6 |
| 20260502051549 | 55 | 345 | 2.0 | 5.0 | 0.00 | 0.00 | 0.00 | 76 | 1012.6 |
| 20260502051040 | 55 | 306 | 2.0 | 4.0 | 0.00 | 0.00 | 0.00 | 76 | 1012.7 |
| 20260502050540 | 55 | 322 | 2.0 | 5.0 | 0.00 | 0.00 | 0.00 | 76 | 1012.8 |
| 20260502050049 | 55 | 347 | 2.0 | 5.0 | 0.00 | 0.00 | 0.00 | 76 | 1012.7 |
| 20260502045543 | 55 | 288 | 2.0 | 6.0 | 0.00 | 0.00 | 0.00 | 76 | 1012.8 |
| 20260502045039 | 55 | 342 | 1.0 | 6.0 | 0.00 | 0.00 | 0.00 | 77 | 1012.8 |
| 20260502044549 | 55 | 351 | 2.0 | 6.0 | 0.00 | 0.00 | 0.00 | 76 | 1012.8 |
| 20260502044043 | 56 | 300 | 1.0 | 6.0 | 0.00 | 0.00 | 0.00 | 78 | 1012.8 |
| 20260502043540 | 56 | 294 | 3.0 | 9.0 | 0.00 | 0.00 | 0.00 | 76 | 1013.0 |
| 20260502043057 | 56 | 336 | 3.0 | 9.0 | 0.00 | 0.00 | 0.00 | 77 | 1013.0 |
| 20260502042541 | 56 | 344 | 3.0 | 7.0 | 0.00 | 0.00 | 0.00 | 76 | 1013.0 |
| 20260502042040 | 56 | 312 | 4.0 | 7.0 | 0.00 | 0.00 | 0.00 | 77 | 1013.1 |
| 20260502041549 | 56 | 315 | 2.0 | 4.0 | 0.00 | 0.00 | 0.00 | 77 | 1013.1 |
| 20260502041041 | 56 | 340 | 2.0 | 4.0 | 0.00 | 0.00 | 0.00 | 77 | 1013.2 |
| 20260502040540 | 56 | 332 | 2.0 | 4.0 | 0.00 | 0.00 | 0.00 | 77 | 1013.3 |
| 20260502040053 | 56 | 343 | 2.0 | 4.0 | 0.00 | 0.00 | 0.00 | 77 | 1013.2 |
| 20260502035540 | 56 | 311 | 1.0 | 3.0 | 0.00 | 0.00 | 0.00 | 78 | 1013.2 |
| 20260502035039 | 56 | 0 | 0.0 | 2.0 | 0.00 | 0.00 | 0.00 | 78 | 1013.1 |
| 20260502034551 | 56 | 0 | 0.0 | 2.0 | 0.00 | 0.00 | 0.00 | 77 | 1013.1 |
| 20260502034040 | 56 | 355 | 0.0 | 2.0 | 0.00 | 0.00 | 0.00 | 77 | 1013.1 |
| 20260502033539 | 56 | 355 | 0.0 | 3.0 | 0.00 | 0.00 | 0.00 | 77 | 1013.1 |
| 20260502033047 | 56 | 0 | 0.0 | 3.0 | 0.00 | 0.00 | 0.00 | 77 | 1013.1 |
| 20260502032540 | 56 | 306 | 1.0 | 3.0 | 0.00 | 0.00 | 0.00 | 76 | 1013.1 |
| 20260502032041 | 57 | 307 | 1.0 | 3.0 | 0.00 | 0.00 | 0.00 | 76 | 1013.0 |
| 20260502031548 | 57 | 305 | 1.0 | 3.0 | 0.00 | 0.00 | 0.00 | 76 | 1013.1 |
| 20260502031041 | 57 | 306 | 2.0 | 3.0 | 0.00 | 0.00 | 0.00 | 75 | 1013.1 |
| 20260502030539 | 57 | 5 | 1.0 | 3.0 | 0.00 | 0.00 | 0.00 | 76 | 1013.1 |
| 20260502030100 | 57 | 23 | 1.0 | 3.0 | 0.00 | 0.00 | 0.00 | 75 | 1013.1 |
| 20260502025539 | 57 | 0 | 0.0 | 2.0 | 0.00 | 0.00 | 0.00 | 73 | 1013.2 |
| 20260502025041 | 57 | 44 | 0.0 | 3.0 | 0.00 | 0.00 | 0.00 | 73 | 1013.2 |
| 20260502024546 | 57 | 44 | 1.0 | 3.0 | 0.00 | 0.00 | 0.00 | 74 | 1013.1 |
| 20260502024040 | 58 | 20 | 2.0 | 3.0 | 0.00 | 0.00 | 0.00 | 73 | 1013.1 |
| 20260502023542 | 58 | 9 | 1.0 | 3.0 | 0.00 | 0.00 | 0.00 | 73 | 1013.2 |
| 20260502023058 | 58 | 5 | 1.0 | 3.0 | 0.00 | 0.00 | 0.00 | 73 | 1013.1 |
| 20260502022541 | 58 | 355 | 1.0 | 3.0 | 0.00 | 0.00 | 0.00 | 72 | 1013.2 |
| 20260502022041 | 58 | 352 | 2.0 | 4.0 | 0.00 | 0.00 | 0.00 | 69 | 1013.2 |
| 20260502021542 | 58 | 360 | 2.0 | 4.0 | 0.00 | 0.00 | 0.00 | 70 | 1013.2 |
| 20260502021040 | 58 | 340 | 2.0 | 4.0 | 0.00 | 0.00 | 0.00 | 69 | 1013.2 |
| 20260502020540 | 58 | 352 | 2.0 | 4.0 | 0.00 | 0.00 | 0.00 | 71 | 1013.2 |
| 20260502020049 | 58 | 352 | 3.0 | 4.0 | 0.00 | 0.00 | 0.00 | 69 | 1013.2 |
| 20260502015544 | 58 | 333 | 2.0 | 4.0 | 0.00 | 0.00 | 0.00 | 68 | 1013.2 |
| 20260502015041 | 57 | 310 | 2.0 | 3.0 | 0.00 | 0.00 | 0.00 | 69 | 1013.1 |
| 20260502014545 | 57 | 355 | 2.0 | 3.0 | 0.00 | 0.00 | 0.00 | 72 | 1012.8 |
| 20260502014040 | 57 | 28 | 1.0 | 3.0 | 0.00 | 0.00 | 0.00 | 71 | 1012.5 |
| 20260502013540 | 57 | 38 | 1.0 | 2.0 | 0.00 | 0.00 | 0.00 | 71 | 1012.6 |
| 20260502013053 | 57 | 0 | 0.0 | 2.0 | 0.00 | 0.00 | 0.00 | 69 | 1012.4 |
| 20260502012542 | 57 | 0 | 0.0 | 2.0 | 0.00 | 0.00 | 0.00 | 69 | 1012.5 |
| 20260502012040 | 57 | 0 | 0.0 | 2.0 | 0.00 | 0.00 | 0.00 | 68 | 1012.5 |
| 20260502011547 | 57 | 38 | 1.0 | 2.0 | 0.00 | 0.00 | 0.00 | 69 | 1012.4 |
| 20260502011044 | 57 | 38 | 0.0 | 2.0 | 0.00 | 0.00 | 0.00 | 69 | 1012.3 |
| 20260502010541 | 58 | 0 | 1.0 | 2.0 | 0.00 | 0.00 | 0.00 | 68 | 1012.2 |
| 20260502010055 | 58 | 34 | 1.0 | 2.0 | 0.00 | 0.00 | 0.00 | 67 | 1012.2 |
| 20260502005540 | 58 | 0 | 0.0 | 2.0 | 0.00 | 0.00 | 0.00 | 64 | 1012.1 |
| 20260502005038 | 58 | 34 | 0.0 | 2.0 | 0.00 | 0.00 | 0.00 | 64 | 1012.0 |
| 20260502004551 | 59 | 36 | 1.0 | 2.0 | 0.00 | 0.00 | 0.00 | 65 | 1012.1 |
| 20260502004038 | 59 | 0 | 0.0 | 2.0 | 0.00 | 0.00 | 0.00 | 64 | 1012.0 |
| 20260502003537 | 59 | 34 | 1.0 | 2.0 | 0.00 | 0.00 | 0.00 | 65 | 1011.8 |
| 20260502003045 | 60 | 28 | 0.0 | 2.0 | 0.00 | 0.00 | 0.00 | 65 | 1011.7 |
| 20260502002537 | 60 | 28 | 1.0 | 3.0 | 0.00 | 0.00 | 0.00 | 64 | 1011.8 |
| 20260502002038 | 60 | 355 | 1.0 | 3.0 | 0.00 | 0.00 | 0.00 | 64 | 1011.8 |
| 20260502001551 | 61 | 355 | 1.0 | 3.0 | 0.00 | 0.00 | 0.00 | 62 | 1012.0 |
| 20260502001038 | 61 | 355 | 1.0 | 4.0 | 0.00 | 0.00 | 0.00 | 59 | 1012.0 |
| 20260502000538 | 61 | 25 | 2.0 | 4.0 | 0.00 | 0.00 | 0.00 | 59 | 1011.9 |
| 20260502000051 | 61 | 340 | 2.0 | 4.0 | 0.00 | 0.00 | 0.00 | 58 | 1011.9 |
| 20260501235540 | 61 | 348 | 1.0 | 4.0 | 0.00 | 0.00 | 0.00 | 59 | 1011.9 |
| 20260501235038 | 61 | 333 | 1.0 | 4.0 | 0.00 | 0.00 | 0.00 | 54 | 1011.9 |
| 20260501234550 | 62 | 348 | 1.0 | 5.0 | 0.00 | 0.00 | 0.00 | 56 | 1011.9 |
| 20260501234038 | 62 | 313 | 2.0 | 6.0 | 0.00 | 0.00 | 0.00 | 56 | 1011.9 |
| 20260501233538 | 62 | 355 | 2.0 | 6.0 | 0.00 | 0.00 | 0.00 | 55 | 1011.8 |
| 20260501233055 | 62 | 295 | 2.0 | 5.0 | 0.00 | 0.00 | 0.00 | 53 | 1011.6 |
| 20260501232538 | 62 | 330 | 2.0 | 4.0 | 0.00 | 0.00 | 0.00 | 53 | 1011.6 |
| 20260501232041 | 62 | 277 | 1.0 | 5.0 | 0.00 | 0.00 | 0.00 | 54 | 1011.6 |
| 20260501231548 | 62 | 5 | 2.0 | 5.0 | 0.00 | 0.00 | 0.00 | 53 | 1011.6 |
| 20260501231039 | 62 | 12 | 2.0 | 4.0 | 0.00 | 0.00 | 0.00 | 53 | 1011.6 |
| 20260501230538 | 62 | 320 | 2.0 | 6.0 | 0.00 | 0.00 | 0.00 | 54 | 1011.5 |
| 20260501230048 | 62 | 15 | 3.0 | 8.0 | 0.00 | 0.00 | 0.00 | 56 | 1011.4 |
| 20260501225541 | 63 | 13 | 3.0 | 8.0 | 0.00 | 0.00 | 0.00 | 56 | 1011.2 |
| 20260501225038 | 63 | 17 | 4.0 | 8.0 | 0.00 | 0.00 | 0.00 | 55 | 1011.2 |
| 20260501224550 | 63 | 331 | 3.0 | 7.0 | 0.00 | 0.00 | 0.00 | 56 | 1011.3 |
| 20260501224038 | 63 | 330 | 2.0 | 10.0 | 0.00 | 0.00 | 0.00 | 56 | 1011.4 |
| 20260501223538 | 63 | 311 | 2.0 | 10.0 | 0.00 | 0.00 | 0.00 | 58 | 1011.3 |
| 20260501223054 | 63 | 313 | 6.0 | 10.0 | 0.00 | 0.00 | 0.00 | 57 | 1011.0 |
| 20260501222540 | 63 | 5 | 5.0 | 11.0 | 0.00 | 0.00 | 0.00 | 56 | 1011.1 |
| 20260501222038 | 63 | 360 | 4.0 | 11.0 | 0.00 | 0.00 | 0.00 | 58 | 1011.3 |
| 20260501221550 | 63 | 5 | 4.0 | 9.0 | 0.00 | 0.00 | 0.00 | 57 | 1011.3 |
| 20260501221038 | 63 | 5 | 2.0 | 10.0 | 0.00 | 0.00 | 0.00 | 59 | 1011.3 |
| 20260501220538 | 63 | 333 | 4.0 | 10.0 | 0.00 | 0.00 | 0.00 | 58 | 1011.4 |
| 20260501220051 | 63 | 352 | 4.0 | 10.0 | 0.00 | 0.00 | 0.00 | 58 | 1011.5 |
| 20260501215540 | 63 | 317 | 6.0 | 13.0 | 0.00 | 0.00 | 0.00 | 58 | 1011.5 |
| 20260501215041 | 63 | 343 | 7.0 | 13.0 | 0.00 | 0.00 | 0.00 | 57 | 1011.5 |